Weather in Nyal

Russia / Murmansk Oblast     69°04′40″N   32°07′18″E
temp.,
°C
wind,
m/s
gust,
m/s
humid.,
%
clouds,
%
prec.,
mm/h
press.,
hPa
HPBL,
m
19 june, sat
sat1900:00+10nne2395100 3.1 1002197
03:00+8nnw6896100 12.9 1003367
06:00+8nw8129084 1.3 1007698
09:00+11nw10126574 1.4 10101418
12:00+11wnw686785 0.2 10131211
15:00+14w695379 0.4 10141852
18:00+13nnw796123 1.1 10151397
21:00+11n4572100 1.2 1017506
20 june, sun
sun2000:00+7nne238585 0.0 101885
03:00+7ene118568 0.0 101812
06:00+9e3475100 0.0 1016246
09:00+12ese676898 0.0 1015601
12:00+15se5561100 0.1 10141029
15:00+13se4673100 0.8 1013587
18:00+11ene4789100 0.6 1012346
21:00+10ene5796100 1.6 1013385
21 june, mon
mon2100:00+9ne6997100 0.3 1014367
03:00+8ne5897100 0.3 1015311
06:00+8ne6997100 0.0 1016467
09:00+9e5994100 0.1 1017613
12:00+9e5795100 0.0 1018466
15:00+9ese5792100 0.1 1018590
18:00+11se5587100 0.1 1017543
21:00+11se3587100 0.1 1015324
22 june, tue
tue2200:00+10ese3696100 0.2 1014145
03:00+10ese2698100 1.8 1013164
06:00+11e1395100 0.0 1012173
09:00+13s2390100 0.0 1011384
12:00+14sw458898 0.0 1011472
15:00+15wsw71083100 0.1 1013935
18:00+8nnw91583100 0.3 1018570
21:00+10nnw710685 0.3 1021879
23 june, wed
wed2300:00+7nnw2277100 0.0 102216
03:00+6nnw238390 0.0 102351
06:00+8nne237197 0.0 1024305
09:00+9e4562100 0.0 1024617
12:00+9e4568100 0.0 1024429
15:00+9e5871100 0.1 1023472
18:00+8ese5981100 0.3 1022453
21:00+8ese51086100 0.6 1021387